Flag for United Kingdom Weather past 2 weeks in Newport, Wales, United Kingdom

Now
63 °F

Partly sunny.


Feels Like: 63 °F
Forecast: 57 / 67 °F
Wind: 15 mph from Southeast

Location: Bristol / Lulsgate

Current Time: Aug 27, 2014 at 3:01:47 PM

Latest Report: Aug 27, 2014 at 2:20 PM


Visibility: N/A

Pressure: 29.89 "Hg

Humidity: 77%

Dew point: 55 °F

Location of NewportLocation

Historic Weather in Newport — Graph

°F

Newport temperature yesterday

Maximum temperature yesterday: 63 °F (at 3:20 PM)
Minimum temperature yesterday: 55 °F (at 10:50 PM)
Average temperature yesterday: 59 °F

Past Weeks' High & Low Weather Summary

 TemperatureHumidityPressure
High64 °F (Aug 13, 1:50 PM)100% (Aug 14, 5:50 AM)30.18 "Hg (Aug 14, 5:50 AM)
Low45 °F (Aug 21, 2:20 AM)52% (Aug 16, 1:20 PM)29.53 "Hg (Aug 25, 6:20 PM)
Average56 °F80%29.91 "Hg
* Reported Aug 12 1:20 PM — Aug 27 1:50 PM, Newport, Weather by CustomWeather, © 2014

Note: Actual official high and low records may vary slightly from our data, if they occured in-between our weather recording intervals... More about our weather records

Advertising

Newport weather history for previous 24 hours

 ConditionsComfort  
Time TempWeatherWind HumidityBarometerVisibility
1:50 PM
Aug 27
63 °FPartly sunny.14 mph77%29.89 "HgN/A
1:20 PM63 °FPartly sunny.16 mph77%29.89 "HgN/A
12:50 PM63 °FPartly sunny.18 mph73%29.92 "HgN/A
12:20 PM63 °FScattered clouds.16 mph73%29.92 "HgN/A
11:20 AM63 °FPartly sunny.18 mph77%29.92 "Hg6 mi
10:50 AM61 °FPartly sunny.18 mph77%29.92 "Hg6 mi
10:20 AM59 °FPassing clouds.17 mph82%29.92 "HgN/A
9:20 AM55 °FPassing clouds.16 mph88%29.95 "HgN/A
8:50 AM54 °FPassing clouds.15 mph88%29.95 "HgN/A
8:20 AM54 °FPassing clouds.13 mph88%29.95 "HgN/A
7:50 AM52 °FPassing clouds.10 mph94%29.95 "HgN/A
7:20 AM50 °FPassing clouds.12 mph94%29.95 "HgN/A
6:50 AM48 °FPassing clouds.8 mph100%29.95 "HgN/A
6:20 AM48 °FPassing clouds.7 mph94%29.92 "HgN/A
5:50 AM50 °FPassing clouds.10 mph94%29.92 "HgN/A
5:20 AM50 °FPassing clouds.13 mph94%29.92 "HgN/A
4:50 AM52 °FOvercast.13 mph94%29.95 "HgN/A
4:20 AM52 °FOvercast.10 mph94%29.95 "HgN/A
3:50 AM50 °FPassing clouds.9 mph94%29.95 "HgN/A
3:20 AM50 °FClear.8 mph94%29.95 "Hg10 mi
2:50 AM50 °FClear.9 mph94%29.92 "Hg10 mi
2:20 AM52 °FClear.10 mph88%29.92 "Hg10 mi
1:20 AM54 °FClear.13 mph88%29.92 "Hg10 mi
12:50 AM54 °FClear.12 mph94%29.92 "Hg10 mi
12:20 AM55 °FClear.10 mph88%29.92 "Hg10 mi
11:50 PM
Aug 26
55 °FClear.10 mph88%29.89 "Hg10 mi
10:50 PM55 °FClear.10 mph88%29.89 "Hg10 mi
10:20 PM57 °FClear.14 mph82%29.89 "Hg10 mi
9:50 PM57 °FPassing clouds.17 mph82%29.86 "HgN/A
9:20 PM59 °FPassing clouds.15 mph82%29.86 "HgN/A
8:50 PM59 °FScattered clouds.15 mph82%29.86 "HgN/A
8:20 PM59 °FScattered clouds.14 mph88%29.83 "HgN/A
7:50 PM59 °FScattered clouds.15 mph88%29.83 "HgN/A
7:20 PM61 °FScattered showers. Scattered clouds.16 mph83%29.80 "HgN/A
6:50 PM61 °FScattered showers. Partly sunny.17 mph83%29.80 "HgN/A
6:20 PM63 °FScattered clouds.20 mph77%29.77 "HgN/A
5:50 PM61 °FScattered clouds.17 mph83%29.77 "HgN/A
5:20 PM61 °FScattered clouds.18 mph83%29.77 "HgN/A
4:50 PM61 °FScattered clouds.20 mph83%29.74 "HgN/A
4:20 PM63 °FScattered clouds.18 mph83%29.74 "HgN/A
3:50 PM61 °FScattered clouds.18 mph88%29.74 "HgN/A
3:20 PM63 °FPartly sunny.18 mph83%29.71 "HgN/A
Weather by CustomWeather, © 2014

See weather overviewHow to use our weather pages